Time,TemperatureF,DewpointF,PressureIn,WindDirection,WindDirectionDegrees,WindSpeedMPH,WindSpeedGustMPH,Humidity,HourlyPrecipIn,Conditions,Clouds,dailyrainin,SoftwareType,DateUTC
2013-02-04 00:12:00,15.2,13.0,29.76,NW,308,0.0,0.0,92,0.00,,,0.00,weatherlink.com 1.10,2013-02-04 05:12:00,
2013-02-04 00:27:00,14.5,12.0,29.76,NW,308,0.0,0.0,91,0.00,,,0.00,weatherlink.com 1.10,2013-02-04 05:27:00,
2013-02-04 00:42:00,13.7,12.0,29.76,NW,308,0.0,0.0,91,0.00,,,0.00,weatherlink.com 1.10,2013-02-04 05:42:00,
2013-02-04 00:57:00,13.7,12.0,29.76,NW,308,0.0,0.0,91,0.00,,,0.00,weatherlink.com 1.10,2013-02-04 05:57:00,
2013-02-04 01:13:00,13.0,11.0,29.76,NW,308,0.0,0.0,91,0.00,,,0.00,weatherlink.com 1.10,2013-02-04 06:13:00,
2013-02-04 01:27:00,13.0,11.0,29.76,NW,309,0.0,0.0,91,0.00,,,0.00,weatherlink.com 1.10,2013-02-04 06:27:00,
2013-02-04 01:42:00,13.2,11.0,29.76,NW,309,0.0,0.0,91,0.00,,,0.00,weatherlink.com 1.10,2013-02-04 06:42:00,
2013-02-04 01:57:00,13.2,11.0,29.76,NW,308,0.0,0.0,91,0.00,,,0.00,weatherlink.com 1.10,2013-02-04 06:57:00,
2013-02-04 02:12:00,13.3,11.0,29.76,NW,308,0.0,0.0,91,0.00,,,0.00,weatherlink.com 1.10,2013-02-04 07:12:00,
2013-02-04 02:28:00,12.9,11.0,29.76,NW,311,0.0,0.0,91,0.00,,,0.00,weatherlink.com 1.10,2013-02-04 07:28:00,
2013-02-04 02:42:00,12.9,11.0,29.76,NW,310,0.0,0.0,90,0.00,,,0.00,weatherlink.com 1.10,2013-02-04 07:42:00,
2013-02-04 02:58:00,12.8,11.0,29.76,NW,310,0.0,0.0,91,0.00,,,0.00,weatherlink.com 1.10,2013-02-04 07:58:00,
2013-02-04 03:12:00,13.5,11.0,29.76,SSE,160,1.0,1.0,91,0.00,,,0.00,weatherlink.com 1.10,2013-02-04 08:12:00,
2013-02-04 03:27:00,14.1,12.0,29.75,SSE,161,0.0,0.0,91,0.00,,,0.00,weatherlink.com 1.10,2013-02-04 08:27:00,
2013-02-04 03:43:00,14.3,12.0,29.76,SSE,162,0.0,0.0,91,0.00,,,0.00,weatherlink.com 1.10,2013-02-04 08:43:00,
2013-02-04 03:57:00,14.4,12.0,29.76,SSE,158,1.0,2.0,91,0.00,,,0.00,weatherlink.com 1.10,2013-02-04 08:57:00,
2013-02-04 04:13:00,14.8,13.0,29.77,SSE,156,0.0,1.0,91,0.00,,,0.00,weatherlink.com 1.10,2013-02-04 09:13:00,
2013-02-04 04:28:00,14.9,13.0,29.77,SW,217,0.0,1.0,91,0.00,,,0.00,weatherlink.com 1.10,2013-02-04 09:28:00,
2013-02-04 04:43:00,16.1,14.0,29.77,WSW,257,0.0,1.0,90,0.00,,,0.00,weatherlink.com 1.10,2013-02-04 09:43:00,
2013-02-04 04:58:00,17.7,15.0,29.78,West,277,0.0,3.0,88,0.00,,,0.00,weatherlink.com 1.10,2013-02-04 09:58:00,
2013-02-04 05:13:00,18.2,15.0,29.78,West,259,0.0,2.0,86,0.00,,,0.00,weatherlink.com 1.10,2013-02-04 10:13:00,
2013-02-04 05:28:00,18.2,14.0,29.79,WSW,245,0.0,2.0,85,0.00,,,0.00,weatherlink.com 1.10,2013-02-04 10:28:00,
2013-02-04 05:43:00,18.7,14.0,29.79,SW,236,0.0,4.0,83,0.00,,,0.00,weatherlink.com 1.10,2013-02-04 10:43:00,
2013-02-04 05:58:00,19.3,14.0,29.80,WNW,297,1.0,7.0,81,0.00,,,0.00,weatherlink.com 1.10,2013-02-04 10:58:00,
2013-02-04 06:13:00,19.6,14.0,29.81,West,271,6.0,6.0,79,0.00,,,0.00,weatherlink.com 1.10,2013-02-04 11:13:00,
2013-02-04 06:28:00,20.0,14.0,29.81,SW,229,3.0,10.0,76,0.00,,,0.00,weatherlink.com 1.10,2013-02-04 11:28:00,
2013-02-04 06:43:00,20.0,13.0,29.81,WSW,252,1.0,8.0,75,0.00,,,0.00,weatherlink.com 1.10,2013-02-04 11:43:00,
2013-02-04 07:13:00,20.3,13.0,29.83,South,188,2.0,12.0,72,0.00,,,0.00,weatherlink.com 1.10,2013-02-04 12:13:00,
2013-02-04 07:28:00,20.8,13.0,29.83,WNW,284,0.0,10.0,71,0.00,,,0.00,weatherlink.com 1.10,2013-02-04 12:28:00,
2013-02-04 07:46:00,21.5,13.0,29.83,WSW,258,4.0,6.0,69,0.00,,,0.00,weatherlink.com 1.10,2013-02-04 12:46:00,
2013-02-04 08:04:00,22.1,12.0,29.84,NW,304,2.0,8.0,66,0.00,,,0.00,weatherlink.com 1.10,2013-02-04 13:04:00,
2013-02-04 08:22:00,22.9,13.0,29.84,WSW,248,4.0,6.0,65,0.00,,,0.00,weatherlink.com 1.10,2013-02-04 13:22:00,
2013-02-04 08:39:00,23.5,13.0,29.84,WNW,284,1.0,9.0,63,0.00,,,0.00,weatherlink.com 1.10,2013-02-04 13:39:00,
2013-02-04 08:57:00,23.8,13.0,29.84,WNW,283,3.0,8.0,63,0.00,,,0.00,weatherlink.com 1.10,2013-02-04 13:57:00,
2013-02-04 09:15:00,24.0,11.0,29.85,WNW,289,5.0,12.0,59,0.00,,,0.00,weatherlink.com 1.10,2013-02-04 14:15:00,
2013-02-04 09:33:00,24.7,11.0,29.85,WNW,293,5.0,10.0,57,0.00,,,0.00,weatherlink.com 1.10,2013-02-04 14:33:00,
2013-02-04 09:49:00,24.5,11.0,29.84,WNW,301,3.0,13.0,57,0.00,,,0.00,weatherlink.com 1.10,2013-02-04 14:49:00,
2013-02-04 10:07:00,24.1,10.0,29.84,WNW,291,7.0,15.0,55,0.00,,,0.00,weatherlink.com 1.10,2013-02-04 15:07:00,
2013-02-04 10:25:00,24.0,11.0,29.85,NW,304,2.0,14.0,57,0.00,,,0.00,weatherlink.com 1.10,2013-02-04 15:25:00,
2013-02-04 10:43:00,24.6,10.0,29.84,WNW,302,6.0,16.0,54,0.00,,,0.00,weatherlink.com 1.10,2013-02-04 15:43:00,
2013-02-04 11:00:00,25.0,11.0,29.85,SW,236,7.0,11.0,55,0.00,,,0.00,weatherlink.com 1.10,2013-02-04 16:00:00,
2013-02-04 11:18:00,24.8,10.0,29.84,West,262,7.0,17.0,53,0.00,,,0.00,weatherlink.com 1.10,2013-02-04 16:18:00,
2013-02-04 11:36:00,25.2,9.0,29.84,WSW,243,8.0,13.0,50,0.00,,,0.00,weatherlink.com 1.10,2013-02-04 16:36:00,
2013-02-04 11:54:00,24.9,9.0,29.83,West,281,11.0,11.0,50,0.00,,,0.00,weatherlink.com 1.10,2013-02-04 16:54:00,
2013-02-04 12:12:00,25.1,8.0,29.83,North,10,6.0,22.0,49,0.00,,,0.00,weatherlink.com 1.10,2013-02-04 17:12:00,
2013-02-04 12:28:00,25.9,7.0,29.83,WNW,283,11.0,20.0,45,0.00,,,0.00,weatherlink.com 1.10,2013-02-04 17:28:00,
2013-02-04 12:46:00,25.3,7.0,29.83,NW,314,12.0,15.0,46,0.00,,,0.00,weatherlink.com 1.10,2013-02-04 17:46:00,
2013-02-04 13:04:00,25.7,7.0,29.83,WNW,293,4.0,11.0,46,0.00,,,0.00,weatherlink.com 1.10,2013-02-04 18:04:00,
2013-02-04 13:21:00,27.1,8.0,29.82,South,191,6.0,14.0,44,0.00,,,0.00,weatherlink.com 1.10,2013-02-04 18:21:00,
2013-02-04 13:39:00,26.2,7.0,29.82,North,359,3.0,14.0,45,0.00,,,0.00,weatherlink.com 1.10,2013-02-04 18:39:00,
2013-02-04 13:57:00,27.1,7.0,29.82,WSW,243,15.0,17.0,43,0.00,,,0.00,weatherlink.com 1.10,2013-02-04 18:57:00,
2013-02-04 14:13:00,26.6,8.0,29.83,SW,229,12.0,14.0,45,0.00,,,0.00,weatherlink.com 1.10,2013-02-04 19:13:00,
2013-02-04 14:28:00,26.9,9.0,29.83,SSW,200,4.0,12.0,47,0.00,,,0.00,weatherlink.com 1.10,2013-02-04 19:28:00,
2013-02-04 14:43:00,26.1,11.0,29.84,WSW,250,4.0,19.0,52,0.00,,,0.00,weatherlink.com 1.10,2013-02-04 19:43:00,
2013-02-04 14:58:00,27.8,11.0,29.84,WSW,255,5.0,11.0,50,0.00,,,0.00,weatherlink.com 1.10,2013-02-04 19:58:00,
2013-02-04 15:13:00,28.3,12.0,29.84,SW,222,2.0,17.0,51,0.00,,,0.00,weatherlink.com 1.10,2013-02-04 20:13:00,
2013-02-04 15:28:00,27.2,11.0,29.84,NNW,344,3.0,12.0,51,0.00,,,0.00,weatherlink.com 1.10,2013-02-04 20:28:00,
2013-02-04 15:44:00,26.0,12.0,29.84,NW,311,3.0,9.0,55,0.00,,,0.00,weatherlink.com 1.10,2013-02-04 20:44:00,
2013-02-04 15:59:00,25.4,12.0,29.84,WNW,297,2.0,11.0,56,0.00,,,0.00,weatherlink.com 1.10,2013-02-04 20:59:00,
2013-02-04 16:14:00,25.4,12.0,29.84,WSW,253,6.0,11.0,56,0.00,,,0.00,weatherlink.com 1.10,2013-02-04 21:14:00,
2013-02-04 16:28:00,25.6,10.0,29.84,West,276,5.0,15.0,53,0.00,,,0.00,weatherlink.com 1.10,2013-02-04 21:28:00,
2013-02-04 16:43:00,25.0,11.0,29.84,NNW,335,6.0,10.0,56,0.00,,,0.00,weatherlink.com 1.10,2013-02-04 21:43:00,
2013-02-04 16:58:00,24.0,12.0,29.85,NNE,26,3.0,11.0,60,0.00,,,0.00,weatherlink.com 1.10,2013-02-04 21:58:00,
2013-02-04 17:13:00,23.3,12.0,29.86,WNW,300,2.0,8.0,61,0.00,,,0.00,weatherlink.com 1.10,2013-02-04 22:13:00,
2013-02-04 17:28:00,23.0,11.0,29.87,WNW,301,3.0,7.0,61,0.00,,,0.00,weatherlink.com 1.10,2013-02-04 22:28:00,
2013-02-04 17:43:00,22.6,11.0,29.87,NNW,347,0.0,5.0,61,0.00,,,0.00,weatherlink.com 1.10,2013-02-04 22:43:00,
2013-02-04 17:59:00,22.1,11.0,29.88,WSW,250,0.0,3.0,63,0.00,,,0.00,weatherlink.com 1.10,2013-02-04 22:59:00,
2013-02-04 18:14:00,21.3,11.0,29.89,NW,321,1.0,3.0,65,0.00,,,0.00,weatherlink.com 1.10,2013-02-04 23:14:00,
2013-02-04 18:29:00,21.0,12.0,29.89,NW,314,0.0,4.0,67,0.00,,,0.00,weatherlink.com 1.10,2013-02-04 23:29:00,
2013-02-04 18:44:00,21.0,12.0,29.90,NW,304,0.0,5.0,67,0.00,,,0.00,weatherlink.com 1.10,2013-02-04 23:44:00,
2013-02-04 18:58:00,20.6,12.0,29.90,WNW,290,1.0,2.0,68,0.00,,,0.00,weatherlink.com 1.10,2013-02-04 23:58:00,
2013-02-04 19:14:00,20.2,12.0,29.91,West,280,0.0,2.0,69,0.00,,,0.00,weatherlink.com 1.10,2013-02-05 00:14:00,
2013-02-04 19:29:00,20.0,11.0,29.91,WSW,249,0.0,3.0,69,0.00,,,0.00,weatherlink.com 1.10,2013-02-05 00:29:00,
2013-02-04 19:44:00,19.9,11.0,29.91,WNW,300,0.0,3.0,69,0.00,,,0.00,weatherlink.com 1.10,2013-02-05 00:44:00,
2013-02-04 19:59:00,20.0,11.0,29.91,NNW,342,0.0,4.0,68,0.00,,,0.00,weatherlink.com 1.10,2013-02-05 00:59:00,
2013-02-04 20:14:00,19.4,11.0,29.92,SW,222,0.0,1.0,69,0.00,,,0.00,weatherlink.com 1.10,2013-02-05 01:14:00,
2013-02-04 20:29:00,18.8,11.0,29.93,West,274,0.0,1.0,71,0.00,,,0.00,weatherlink.com 1.10,2013-02-05 01:29:00,
2013-02-04 20:44:00,18.8,11.0,29.94,NW,308,0.0,1.0,70,0.00,,,0.00,weatherlink.com 1.10,2013-02-05 01:44:00,
2013-02-04 20:59:00,18.2,10.0,29.94,North,1,0.0,1.0,71,0.00,,,0.00,weatherlink.com 1.10,2013-02-05 01:59:00,
2013-02-04 21:14:00,18.6,10.0,29.95,WNW,288,2.0,6.0,69,0.00,,,0.00,weatherlink.com 1.10,2013-02-05 02:14:00,
2013-02-04 21:30:00,18.6,10.0,29.95,NW,304,0.0,3.0,68,0.00,,,0.00,weatherlink.com 1.10,2013-02-05 02:30:00,
2013-02-04 21:44:00,18.3,9.0,29.95,WNW,291,0.0,1.0,68,0.00,,,0.00,weatherlink.com 1.10,2013-02-05 02:44:00,
2013-02-04 21:59:00,16.9,10.0,29.95,South,174,1.0,1.0,73,0.00,,,0.00,weatherlink.com 1.10,2013-02-05 02:59:00,
2013-02-04 22:14:00,16.0,10.0,29.94,South,186,0.0,0.0,76,0.00,,,0.00,weatherlink.com 1.10,2013-02-05 03:14:00,
2013-02-04 22:29:00,16.9,10.0,29.95,SW,224,0.0,4.0,75,0.00,,,0.00,weatherlink.com 1.10,2013-02-05 03:29:00,
2013-02-04 22:44:00,18.3,10.0,29.95,SSW,205,2.0,3.0,70,0.00,,,0.00,weatherlink.com 1.10,2013-02-05 03:44:00,
2013-02-04 22:59:00,19.0,10.0,29.95,West,273,0.0,2.0,68,0.00,,,0.00,weatherlink.com 1.10,2013-02-05 03:59:00,
2013-02-04 23:14:00,19.3,10.0,29.95,WNW,284,1.0,3.0,66,0.00,,,0.00,weatherlink.com 1.10,2013-02-05 04:14:00,
2013-02-04 23:29:00,19.4,10.0,29.95,West,273,0.0,1.0,67,0.00,,,0.00,weatherlink.com 1.10,2013-02-05 04:29:00,
2013-02-04 23:44:00,19.2,10.0,29.96,WSW,239,2.0,2.0,68,0.00,,,0.00,weatherlink.com 1.10,2013-02-05 04:44:00,
2013-02-04 23:59:00,19.4,10.0,29.96,NW,314,0.0,3.0,67,0.00,,,0.00,weatherlink.com 1.10,2013-02-05 04:59:00,